Location: Unspecified
(34.4500°N, 0.0000°E)
Time: 07:29:52
(UTC+00:00)

N. Korean satellite - Visible Passes

Search period start: 13 December 2019 00:00
Search period end: 23 December 2019 00:00
Orbit: 455 x 507 km, 97.2° (Epoch: 12 December)

Date Brightness Start Highest point End Pass type
(mag) Time Alt. Az. Time Alt. Az. Time Alt. Az.
13 Dec 8.2 05:22:39 10° NNE 05:25:52 34° E 05:29:01 10° SSE visible
13 Dec 7.8 17:27:10 10° S 17:30:46 48° W 17:34:21 10° NNW visible
14 Dec 9.7 04:58:11 10° NE 05:00:19 15° E 05:02:25 10° SE visible
14 Dec 7.7 06:30:56 10° NNW 06:33:39 21° WNW 06:36:19 10° WSW visible
15 Dec 6.6 06:04:57 10° N 06:08:20 49° WNW 06:11:39 10° SSW visible
15 Dec 10.0 18:11:41 10° WSW 18:13:25 13° W 18:15:10 10° WNW visible
16 Dec 6.9 05:39:29 10° NNE 05:42:56 64° E 05:46:19 10° S visible
16 Dec 9.0 17:44:40 10° SSW 17:47:52 27° W 17:51:03 10° NW visible
17 Dec 8.8 05:14:28 10° NE 05:17:26 26° E 05:20:21 10° SSE visible
17 Dec 7.2 17:18:44 10° S 17:22:23 64° W 17:26:02 10° NNW visible
18 Dec 9.9 04:50:32 10° ENE 04:51:51 12° E 04:53:09 10° ESE visible
18 Dec 7.4 06:22:18 10° NNW 06:25:17 27° WNW 06:28:13 10° SW visible
19 Dec 6.3 05:56:30 10° N 05:59:56 67° WNW 06:03:19 10° SSW visible
19 Dec 9.8 18:02:37 10° SW 18:04:59 16° W 18:07:21 10° NW visible
20 Dec 7.5 05:31:10 10° NNE 05:34:30 47° E 05:37:47 10° S visible
20 Dec 8.5 17:36:05 10° SSW 17:39:27 35° W 17:42:49 10° NNW visible
21 Dec 9.2 05:06:22 10° NE 05:08:58 20° E 05:11:33 10° SE visible
22 Dec 7.0 06:13:43 10° N 06:16:53 35° WNW 06:20:02 10° SW visible
